This is the latest recevied weather packets stored in our database for station/object KVDF. If no packets are shown the sender has not sent any weather packets the latest 1 day(s).
| Time | Temp. | Humidity | Pressure | Rain* | Wind** | Luminosity | Snow |
|---|---|---|---|---|---|---|---|
| 1778049226 | 20.56° C | 73% | 1016.3 hPa | - | - | - | - |
| 1778048621 | 20.56° C | 73% | 1016.3 hPa | - | - | - | - |
| 1778046226 | 21.67° C | 68% | 1016.6 hPa | - | - | - | - |
| 1778045619 | 21.67° C | 68% | 1016.3 hPa | - | - | - | - |
| 1778045021 | 21.67° C | 68% | 1016.3 hPa | - | - | - | - |
| 1778044420 | 21.67° C | 68% | 1016.6 hPa | - | - | - | - |
| 1778043823 | 21.67° C | 68% | 1016.6 hPa | - | - | - | - |
| 1778042622 | 22.78° C | 64% | 1016.9 hPa | - | - | - | - |
| 1778042021 | 22.78° C | 64% | 1016.6 hPa | - | - | - | - |
| 1778041422 | 22.78° C | 64% | 1016.6 hPa | - | - | - | - |
| 1778040341 | 22.78° C | 64% | 1016.6 hPa | - | - | - | - |
| 1778039619 | 23.89° C | 57% | 1016.6 hPa | - | - | - | - |
| 1778039026 | 23.89° C | 57% | 1016.6 hPa | - | - | - | - |
| 1778038425 | 23.89° C | 60% | 1016.6 hPa | - | - | - | - |
| 1778037824 | 23.89° C | 60% | 1016.6 hPa | - | - | - | - |
| 1778037220 | 25° C | 57% | 1016.3 hPa | - | - | - | - |
| 1778036618 | 25° C | 57% | 1016.3 hPa | - | - | - | - |
| 1778034818 | 23.89° C | 73% | 1015.9 hPa | - | - | - | - |
| 1778034221 | 23.89° C | 73% | 1015.9 hPa | - | - | - | - |
| 1778033621 | 22.78° C | 78% | 1015.9 hPa | - | - | - | - |
| 1778032421 | 21.67° C | 83% | 1015.6 hPa | - | - | - | - |
| 1778031221 | 22.78° C | 78% | 1015.2 hPa | - | - | - | - |
| 1778030619 | 22.78° C | 78% | 1015.2 hPa | - | - | - | - |
| 1778030022 | 23.89° C | 73% | 1014.9 hPa | - | - | - | - |
| 1778029419 | 23.89° C | 73% | 1014.9 hPa | - | - | - | - |
* Rain since midnight (hover to see other rain measurements)
** Current wind speed in m/s (hover to see current wind gust speed)